COSMOS 1275 DEB, 13464

Orbit data source: Space-Track

COSMOS 1275 DEB, 13464 is space debris in LEO originally from a launch on Thu, 04 Jun 1981 UTC launched from the Plesetsk Missile And Space Complex (PKMTR). Debris objects in space refer to the collection of defunct objects orbiting the Earth. Examples of debris include non-operational satellites, rocket bodies, and fragments generated from explosions, collisions, or faulty payload assembly.

Loading next visibility...
Identifier
13464, 1981-053FL
Orbit
LEO
Country
Flag of CISCIS
Related business
Manufacturer
Unknown
Mission
Spacecraft
Bus & Motor
Unknown
Mass
Unknown
Launch date (UTC)
1981-06-04 (45 years ago)
Launch vehicle
Unknown
Launch site
Plesetsk Missile And Space Complex (PKMTR)
Object type
Payload
Rocket body
Debris
Shape & HBR
Unknown shape, 0.1 m
Radar Cross Section
Small (<0.1 m²)

Expand to show TLE details & history
Last TLE update: 1 day ago

TLE from 1 day ago
0 COSMOS 1275 DEB
1 13464U 81053FL  26072.23180811  .00005594  00000-0  16979-2 0  9993
2 13464  82.9061 127.7990 0021160 340.9062  86.9571 14.41936807243182
Epoch: 2026-03-13T05:33Z
TLE epoch observation values (Epoch: 2026-03-13T05:33:48.220Z)
Latitude
67.12253°
Longitude
-109.46294°
Altitude
762.961 km
Speed
7.479 km/s
True Right ascension
09h 39m 25s
True Declination
66° 59' 57"
Sunlit
Object was in daylight at epoch
Visualization orbit readout
Latitude
Unknown
Longitude
Unknown
Altitude
Unknown
Speed
Unknown
Apparent Right ascension
Unknown
Apparent Declination
Unknown
Sunlit
N/A
Visualization observer readout
Local Sidereal Time
10:33:17
Azimuth
Unknown
Elevation
Unknown
Doppler factor
Unknown
Orbital elements
Apogee altitude
764.246 km
Perigee altitude
734.083 km
Semi-major axis
7,127.302 km
Eccentricity
0.00212
Inclination
82.9061°
RAAN
127.799°
Arg. of periapsis
340.9062°
True anomaly
87.19927°
Mean anomaly
86.9571°
Eccentric anomaly
87.07818°
Mean motion
3.60708 °/min
Orbital period
99.8 mins
BSTAR
0.0016979
Loading maneuver chart data...
Computing Atmospheric mass density...
Loading historical data...
Loading historical data...
Loading historical data...
Loading historical data...
Loading historical data...
Loading historical data...
Loading historical data...

Documentation

Showing up to 5 results
|